Date String (YYYY-MM-DD hh:mm:ss) UTC,Instrument flags,Ambient pressure (hPa),Sample flow (lpm),Bypass flow (lpm),Sample temperature (°C),Ambient temperature (°C),ASC tube jacket temperature (°C),LED temperature (°C),Box temperature (°C),Sample RH (%),Span deviation,Mass concentration (μg/m³),Mass concentration (μg/m³),Mass concentration (μg/m³)
DateTimeUTC,F1_M11,P_M11,Q1_M11,Q2_M11,T1_M11,T2_M11,T3_M11,T4_M11,T5_M11,U1_M11,ZSPAN_M11,X2_M11,X0_M11,X1_M11
2022-06-20 12:00:00,,0824.4,5.00,0.00,29.7,28.0,00.0,38.6,31.5,20.7,0000.0,0004.11,0009.05,0002.89
2022-06-20 12:01:00,,0824.5,5.01,0.00,29.7,28.1,00.0,38.6,31.5,20.7,0000.0,0004.11,0009.04,0002.89
2022-06-20 12:02:00,,0824.7,4.99,0.00,29.7,28.2,00.0,38.6,31.5,20.7,0000.0,0004.17,0009.25,0002.89
2022-06-20 12:03:00,,0824.6,4.99,0.00,29.7,28.3,00.0,38.6,31.5,20.7,0000.0,0004.18,0009.26,0002.91
2022-06-20 12:04:00,,0824.6,5.00,0.00,29.7,28.4,00.0,38.6,31.5,20.7,0000.0,0004.24,0009.36,0002.91
2022-06-20 12:05:00,,0824.6,5.00,0.00,29.7,28.4,00.0,38.6,31.6,20.7,0000.0,0004.30,0009.58,0002.92
2022-06-20 12:06:00,,0824.6,4.99,0.00,29.7,28.5,00.0,38.6,31.6,20.7,0000.0,0004.31,0009.77,0002.94
2022-06-20 12:07:00,,0824.5,5.01,0.00,29.7,28.5,00.0,38.6,31.6,20.7,0000.0,0004.36,0009.85,0002.95
2022-06-20 12:08:00,,0824.5,4.99,0.00,29.8,28.6,00.0,38.6,31.6,20.7,0000.0,0004.39,0010.19,0002.94
2022-06-20 12:09:00,,0824.5,5.00,0.00,29.8,28.6,00.0,38.6,31.7,20.7,0000.0,0004.39,0010.31,0002.93
2022-06-20 12:10:00,,0824.6,5.00,0.00,29.8,28.7,00.0,38.6,31.7,20.6,0000.0,0004.39,0010.35,0002.93
2022-06-20 12:11:00,,0824.6,5.00,0.00,29.8,28.7,00.0,38.6,31.7,20.6,0000.0,0004.37,0010.30,0002.94
2022-06-20 12:12:00,,0824.6,4.99,0.00,29.8,28.7,00.0,38.6,31.7,20.5,0000.0,0004.33,0010.10,0002.92
2022-06-20 12:13:00,,0824.7,5.00,0.00,29.8,28.8,00.0,38.6,31.7,20.4,0000.0,0004.29,0010.02,0002.91
2022-06-20 12:14:00,,0824.8,5.00,0.00,29.8,28.8,00.0,38.6,31.7,20.3,0000.0,0004.30,0010.18,0002.91
2022-06-20 12:15:00,,0824.6,4.99,0.00,29.9,28.8,00.0,38.7,31.8,20.3,0000.0,0004.26,0010.06,0002.90
2022-06-20 12:16:00,,0824.6,5.01,0.00,29.9,28.8,00.0,38.7,31.7,20.2,0000.0,0004.21,0009.74,0002.87
2022-06-20 12:17:00,,0824.6,5.00,0.00,29.9,28.9,00.0,38.7,31.8,20.1,0000.0,0004.20,0009.47,0002.84
2022-06-20 12:18:00,,0824.6,5.01,0.00,29.9,28.9,00.0,38.7,31.8,20.1,0000.0,0004.20,0009.54,0002.81
2022-06-20 12:19:00,,0824.7,5.00,0.00,29.9,28.9,00.0,38.7,31.8,20.2,0000.0,0004.19,0009.24,0002.80
2022-06-20 12:20:00,,0824.7,5.00,0.00,29.9,28.9,00.0,38.7,31.8,20.2,0000.0,0004.22,0009.14,0002.79
2022-06-20 12:21:00,,0824.6,5.00,0.00,29.9,28.9,00.0,38.7,31.8,20.1,0000.0,0004.28,0009.31,0002.80
2022-06-20 12:22:00,,0824.7,5.01,0.00,30.0,29.0,00.0,38.7,31.9,20.1,0000.0,0004.29,0009.49,0002.81
2022-06-20 12:23:00,,0824.7,5.01,0.00,30.0,29.0,00.0,38.8,31.9,20.0,0000.0,0004.25,0009.42,0002.79
2022-06-20 12:24:00,,0824.8,5.00,0.00,30.0,29.0,00.0,38.8,31.9,19.9,0000.0,0004.20,0009.29,0002.77
2022-06-20 12:25:00,,0824.8,4.99,0.00,30.0,29.0,00.0,38.8,31.9,19.7,0000.0,0004.18,0009.22,0002.76
2022-06-20 12:26:00,,0824.7,4.98,0.00,30.0,29.0,00.0,38.8,31.9,19.6,0000.0,0004.16,0009.08,0002.79
2022-06-20 12:27:00,,0824.7,5.00,0.00,30.0,29.0,00.0,38.8,31.9,19.5,0000.0,0004.18,0009.18,0002.80
2022-06-20 12:28:00,,0824.7,5.01,0.00,30.1,29.1,00.0,38.8,32.0,19.6,0000.0,0004.19,0009.10,0002.85
2022-06-20 12:29:00,,0824.7,5.00,0.00,30.1,29.1,00.0,38.8,32.0,19.5,0000.0,0004.20,0009.05,0002.90
2022-06-20 12:30:00,,0824.7,5.00,0.00,30.1,29.1,00.0,38.8,32.0,19.6,0000.0,0004.24,0009.12,0002.92
2022-06-20 12:31:00,,0824.8,5.00,0.00,30.1,29.1,00.0,38.9,32.0,19.7,0000.0,0004.21,0009.11,0002.94
2022-06-20 12:32:00,,0824.8,5.01,0.00,30.1,29.1,00.0,38.9,32.0,19.6,0000.0,0004.15,0008.94,0002.92
2022-06-20 12:33:00,,0824.8,5.00,0.00,30.1,29.1,00.0,38.9,32.0,19.5,0000.0,0004.17,0009.04,0002.93
2022-06-20 12:34:00,,0824.8,5.01,0.00,30.1,28.7,00.0,38.9,31.9,19.5,0000.0,0004.23,0009.43,0002.96
2022-06-20 12:35:00,,0824.8,5.00,0.00,30.0,27.9,00.0,38.8,31.7,19.5,0000.0,0004.28,0009.78,0003.00
2022-06-20 12:36:00,,0824.9,5.00,0.00,30.0,27.5,00.0,38.7,31.5,19.6,0000.0,0004.28,0009.74,0003.01
2022-06-20 12:37:00,,0824.9,4.99,0.00,29.9,27.5,00.0,38.7,31.5,19.7,0000.0,0004.31,0010.01,0002.99
2022-06-20 12:38:00,,0824.9,5.00,0.00,29.8,27.6,00.0,38.7,31.5,19.7,0000.0,0004.34,0010.07,0003.00
2022-06-20 12:39:00,,0824.9,5.01,0.00,29.8,27.7,00.0,38.7,31.5,19.8,0000.0,0004.34,0010.13,0002.98
2022-06-20 12:40:00,,0824.9,5.00,0.00,29.8,27.8,00.0,38.7,31.5,19.8,0000.0,0004.30,0010.02,0002.95
2022-06-20 12:41:00,,0824.9,5.00,0.00,29.7,28.0,00.0,38.7,31.5,19.9,0000.0,0004.28,0010.01,0002.94
2022-06-20 12:42:00,,0824.9,5.00,0.00,29.7,28.1,00.0,38.7,31.5,19.9,0000.0,0004.25,0010.49,0002.91
2022-06-20 12:43:00,,0824.9,5.00,0.00,29.7,28.2,00.0,38.7,31.5,19.9,0000.0,0004.27,0010.75,0002.93
2022-06-20 12:44:00,,0825.0,4.99,0.00,29.7,28.3,00.0,38.6,31.5,20.0,0000.0,0004.27,0010.63,0002.94
2022-06-20 12:45:00,,0825.0,5.00,0.00,29.7,28.4,00.0,38.6,31.6,20.0,0000.0,0004.26,0010.40,0002.94
2022-06-20 12:46:00,,0825.0,5.00,0.00,29.8,28.4,00.0,38.6,31.6,20.1,0000.0,0004.20,0010.19,0002.92
2022-06-20 12:47:00,,0825.0,4.98,0.00,29.8,28.5,00.0,38.6,31.6,20.1,0000.0,0004.16,0010.37,0002.91
2022-06-20 12:48:00,,0825.0,5.00,0.00,29.8,28.6,00.0,38.6,31.6,20.2,0000.0,0004.10,0009.96,0002.90
2022-06-20 12:49:00,,0824.9,5.00,0.00,29.8,28.6,00.0,38.6,31.6,20.2,0000.0,0004.06,0009.88,0002.87
2022-06-20 12:50:00,,0825.0,5.00,0.00,29.8,28.7,00.0,38.6,31.7,20.2,0000.0,0004.04,0009.85,0002.86
2022-06-20 12:51:00,,0825.0,5.01,0.00,29.8,28.7,00.0,38.6,31.7,20.3,0000.0,0004.04,0009.92,0002.88
2022-06-20 12:52:00,,0825.1,5.00,0.00,29.8,28.7,00.0,38.6,31.7,20.3,0000.0,0004.01,0009.97,0002.86
2022-06-20 12:53:00,,0825.1,5.00,0.00,29.8,28.8,00.0,38.7,31.7,20.3,0000.0,0004.02,0009.65,0002.88
2022-06-20 12:54:00,,0825.1,5.00,0.00,29.8,28.8,00.0,38.7,31.8,20.3,0000.0,0003.98,0009.40,0002.88
2022-06-20 12:55:00,,0825.1,4.99,0.00,29.9,28.8,00.0,38.7,31.7,20.4,0000.0,0003.91,0009.26,0002.84
2022-06-20 12:56:00,,0825.1,5.00,0.00,29.9,28.9,00.0,38.7,31.7,20.6,0000.0,0003.92,0009.27,0002.81
2022-06-20 12:57:00,,0825.1,4.99,0.00,29.9,28.9,00.0,38.7,31.8,20.5,0000.0,0003.95,0009.06,0002.79
2022-06-20 12:58:00,,0825.2,5.00,0.00,29.9,28.9,00.0,38.7,31.8,20.3,0000.0,0004.00,0008.94,0002.78
2022-06-20 12:59:00,,0825.2,5.00,0.00,29.9,28.9,00.0,38.7,31.8,20.3,0000.0,0004.04,0009.13,0002.77
